Погода в Сальто-дель-Гуайра

Парагвай     24°00′44″S   54°21′42″W
темп.,
°C
ветер,
м/с
пор.,
м/с
влажн.,
%
обл.,
%
осадки,
мм/ч
давл.,
гПа
погр.,
м
1 марта, пн
пн100:00+22в310887 0.3 1010316
03:00+22всв410906 0.3 1009556
06:00+22всв49890 0.0 1010569
09:00+24св69750 0.0 1012849
12:00+28св57637 0.0 1011927
15:00+30св345812 0.1 10081068
18:00+28св34669 0.3 1007824
21:00+24св368655 0.7 1009160
2 марта, вт
вт200:00+23всв379022 0.0 1011200
03:00+22св388910 0.0 1010313
06:00+22всв37900 0.0 1011310
09:00+25св48750 0.0 1012613
12:00+30ссв35580 0.0 1012996
15:00+32всв23500 0.0 10091414
18:00+29в366140 0.1 1009359
21:00+24всв388733 0.3 1011197
3 марта, ср
ср300:00+23всв398571 0.0 1012268
03:00+22всв398860 0.1 1012390
06:00+22св488895 0.0 1012411
09:00+25св477764 0.0 1014548
12:00+28св456920 1.6 1012544
15:00+29ссв237061 4.1 1010441
18:00+27св2479100 1.1 1009182
21:00+23св41088100 1.2 1012337
4 марта, чт
чт400:00+23св51288100 0.0 1013515
03:00+22св4991100 0.0 1012542
06:00+22св5890100 0.0 1012613
09:00+24ссв4784100 0.1 1013658
12:00+27с3571100 0.0 1012757
15:00+29ссв346297 0.4 1009985
18:00+24ссз2391100 8.9 100783
21:00+23св2495100 11.8 1009152
5 марта, пт
пт500:00+22св3795100 3.1 1009259
03:00+22с2597100 5.1 1007243
06:00+21ссв3698100 15.7 1006300
09:00+23ссв3594100 16.8 1008365
12:00+22з51194100 5.2 1008580
15:00+25зсз3684100 6.2 1006720
18:00+25сз2592100 3.0 1005437
21:00+22сз1292100 5.6 100624